Kalamazoo, MI

12:21 AM EST on January 20, 2018 (GMT -0500)
Kalamazoo-Battle Creek International

Weather History for KAZO - October, 2012

Change the Weather History Date:

Saturday, October 20, 2012

  Actual Average Record
Temperature  
Mean Temperature 47 °F 50 °F  
Max Temperature 54 °F 59 °F 85 °F (1953)
Min Temperature 40 °F 40 °F 22 °F (1952)
Degree Days  
Heating Degree Days 18 15  
Month to date heating degree days 292 254  
Since 1 July heating degree days 447 403  
Cooling Degree Days 0 0  
Month to date cooling degree days 0 7  
Year to date cooling degree days 1048 674  
Moisture  
Dew Point 44 °F    
Average Humidity 86    
Maximum Humidity 100    
Minimum Humidity 71    
Precipitation  
Precipitation 0.11 in 0.11 in 1.12 in (1962)
Month to date precipitation 3.69 2.15  
Year to date precipitation 24.22 29.56  
Sea Level Pressure  
Sea Level Pressure 29.72 in    
Wind  
Wind Speed 6 mph (WSW)    
Max Wind Speed 16 mph    
Max Gust Speed 21 mph    
Visibility 8 miles    
Events Rain    
T = Trace of Precipitation, MM = Missing Value Source: NWS Daily Summary

Daily Weather History Graph

Daily Weather History Graph

Search for Another Location

Airport or City:

Trip Planner

Search our weather history database for the weather conditions in past years. The results will help you decide how hot, cold, wet, or windy it might be!

Date:

Astronomy

Oct. 20, 2012 Rise Set
Actual Time 8:01 AM EDT 6:51 PM EDT
Civil Twilight 7:32 AM EDT 7:20 PM EDT
Nautical Twilight 7:00 AM EDT 7:52 PM EDT
Astronomical Twilight 6:27 AM EDT 8:25 PM EDT
Moon 1:39 PM EDT 11:34 PM EDT
Length of Visible Light 11h 47m
Length of Day
10h 50m
Waxing Crescent, 34% of the Moon is Illuminated
Oct 20
Waxing Crescent
Oct 21
First Quarter
Oct 29
Full
Nov 6
Last Quarter
Nov 13
New

Hourly Weather History & Observations

Time (EDT) Temp. Windchill Dew Point Humidity Pressure Visibility Wind Dir Wind Speed Gust Speed Precip Events Conditions
12:33 AM 44.6 °F 41.4 °F 44.6 °F 100% 29.59 in 6.0 mi SW 5.8 mph - N/A   Overcast
12:41 AM 44.6 °F 41.4 °F 44.6 °F 100% 29.59 in 5.0 mi SW 5.8 mph - N/A   Overcast
12:53 AM 45.0 °F 42.6 °F 44.1 °F 97% 29.60 in 5.0 mi WSW 4.6 mph - N/A   Overcast
1:10 AM 44.6 °F 42.2 °F 44.6 °F 100% 29.59 in 5.0 mi SW 4.6 mph - 0.00 in Rain Light Rain
1:53 AM 46.0 °F 41.9 °F 44.1 °F 93% 29.61 in 5.0 mi SSW 8.1 mph - 0.00 in Rain Light Rain
2:12 AM 44.6 °F 40.2 °F 44.6 °F 100% 29.59 in 6.0 mi SSW 8.1 mph - 0.00 in Rain Light Rain
2:32 AM 44.6 °F 40.7 °F 44.6 °F 100% 29.59 in 8.0 mi SW 6.9 mph - 0.00 in   Overcast
2:53 AM 45.0 °F 40.6 °F 43.0 °F 93% 29.61 in 7.0 mi SW 8.1 mph - 0.00 in   Mostly Cloudy
3:04 AM 44.6 °F 40.2 °F 44.6 °F 100% 29.60 in 7.0 mi SW 8.1 mph - N/A   Mostly Cloudy
3:11 AM 44.6 °F 40.7 °F 44.6 °F 100% 29.61 in 7.0 mi WSW 6.9 mph - N/A   Overcast
3:25 AM 44.6 °F 41.4 °F 44.6 °F 100% 29.61 in 8.0 mi WSW 5.8 mph - 0.00 in Rain Light Rain
3:39 AM 44.6 °F 40.7 °F 44.6 °F 100% 29.61 in 9.0 mi WSW 6.9 mph - 0.00 in   Overcast
3:53 AM 46.0 °F 41.9 °F 44.1 °F 93% 29.62 in 6.0 mi WSW 8.1 mph - 0.01 in Rain Light Rain
4:53 AM 46.0 °F 42.5 °F 44.1 °F 93% 29.64 in 10.0 mi WSW 6.9 mph - 0.00 in Rain Light Rain
5:53 AM 46.0 °F 43.1 °F 44.1 °F 93% 29.65 in 10.0 mi SW 5.8 mph - 0.01 in Rain Light Rain
6:37 AM 46.4 °F 43.5 °F 44.6 °F 93% 29.65 in 10.0 mi WSW 5.8 mph - 0.00 in   Overcast
6:53 AM 46.0 °F 43.1 °F 44.1 °F 93% 29.66 in 10.0 mi WSW 5.8 mph - 0.00 in   Overcast
7:53 AM 45.0 °F 43.5 °F 44.1 °F 97% 29.68 in 10.0 mi West 3.5 mph - 0.00 in   Overcast
8:53 AM 46.0 °F - 44.1 °F 93% 29.71 in 10.0 mi Calm Calm - 0.00 in   Mostly Cloudy
9:53 AM 46.9 °F - 45.0 °F 93% 29.73 in 10.0 mi West 4.6 mph - 0.01 in   Overcast
10:53 AM 48.0 °F - 46.0 °F 93% 29.75 in 10.0 mi WSW 5.8 mph - 0.00 in   Overcast
11:53 AM 48.9 °F - 46.0 °F 90% 29.76 in 10.0 mi West 5.8 mph - 0.01 in Rain Light Rain
12:47 PM 50.0 °F - 44.6 °F 82% 29.76 in 1.8 mi WNW 12.7 mph - 0.03 in Rain Heavy Rain
12:53 PM 50.0 °F - 46.0 °F 86% 29.78 in 1.5 mi NW 6.9 mph - 0.05 in Rain Rain
12:57 PM 50.0 °F - 46.4 °F 87% 29.76 in 3.0 mi NW 5.8 mph - 0.00 in Rain Light Rain
1:53 PM 48.9 °F - 45.0 °F 86% 29.79 in 6.0 mi NW 12.7 mph 20.7 mph 0.01 in Rain Light Rain
2:53 PM 51.1 °F - 46.0 °F 83% 29.79 in 10.0 mi WNW 8.1 mph - 0.01 in   Overcast
3:39 PM 51.8 °F - 46.4 °F 82% 29.79 in 10.0 mi West 11.5 mph 19.6 mph N/A   Overcast
3:53 PM 51.1 °F - 45.0 °F 80% 29.81 in 10.0 mi West 9.2 mph - N/A   Mostly Cloudy
4:53 PM 53.1 °F - 45.0 °F 74% 29.82 in 10.0 mi WSW 9.2 mph - N/A   Scattered Clouds
5:05 PM 51.8 °F - 44.6 °F 76% 29.82 in 10.0 mi West 10.4 mph 19.6 mph N/A   Mostly Cloudy
5:15 PM 51.8 °F - 44.6 °F 76% 29.82 in 10.0 mi West 9.2 mph - N/A   Mostly Cloudy
5:53 PM 51.1 °F - 43.0 °F 74% 29.85 in 10.0 mi West 10.4 mph - N/A   Mostly Cloudy
6:53 PM 51.1 °F - 44.1 °F 77% 29.86 in 10.0 mi WSW 6.9 mph - N/A   Overcast
7:53 PM 50.0 °F - 43.0 °F 77% 29.88 in 10.0 mi WSW 9.2 mph - N/A   Overcast
8:53 PM 46.9 °F - 43.0 °F 86% 29.90 in 10.0 mi WSW 3.5 mph - N/A   Scattered Clouds
9:53 PM 46.9 °F - 43.0 °F 86% 29.92 in 10.0 mi WSW 3.5 mph - N/A   Mostly Cloudy
10:53 PM 43.0 °F 41.3 °F 42.1 °F 97% 29.93 in 6.0 mi WSW 3.5 mph - N/A   Clear
11:53 PM 43.0 °F - 42.1 °F 97% 29.94 in 5.0 mi Calm Calm - N/A   Clear